Home   Weather   Werne   Past weeks

Flag for Germany Past Weather in Werne, North Rhine-Westphalia, Germany — Yesterday and Last 2 Weeks

Now
25 °F

Clear.


Feels Like: 19 °F
Forecast: 18 / 29 °F
Wind: 5 mph from Southeast

Location: Dortmund / Wickede

Current Time: Jan 22, 2017 at 12:55:41 am

Latest Report: Jan 21, 2017 at 9:50 pm


Visibility: 10 mi

Pressure: 30.33 "Hg

Humidity: 80%

Dew Point: 19 °F

Location of WerneLocation

Past Weather in Werne — Graph

°F

Werne Temperature Yesterday

Maximum temperature yesterday: 36 °F (at 1:20 pm)
Minimum temperature yesterday: 23 °F (at 5:20 am)
Average temperature yesterday: 29 °F

High & Low Weather Summary for the Past Weeks

 TemperatureHumidityPressure
High43 °F (Jan 11, 2:20 pm)100% (Jan 8, 6:20 am)30.69 "Hg (Jan 8, 6:20 am)
Low19 °F (Jan 19, 1:20 am)41% (Jan 20, 2:20 pm)29.06 "Hg (Jan 13, 5:20 am)
Average31 °F81%30.18 "Hg
* Reported Jan 6 9:20 pm — Jan 21 9:50 pm, Werne, Weather by CustomWeather, © 2017

Note: Actual official high and low records may vary slightly from our data, if they occured in-between our weather recording intervals... More about our weather records

Advertising

Werne Weather History for the Previous 24 Hours

Scroll right to see more
 ConditionsComfort  
Time TempWeatherWind HumidityBarometerVisibility
9:50 pm
Sat, Jan 21
25 °FClear.5 mph80%30.33 "Hg10 mi
9:20 pm28 °FClear.6 mph80%30.33 "Hg10 mi
8:50 pm28 °FClear.5 mph80%30.33 "Hg10 mi
8:20 pm28 °FClear.7 mph80%30.33 "Hg10 mi
7:50 pm28 °FClear.2 mph74%30.36 "Hg10 mi
7:20 pm30 °FClear.No wind75%30.33 "Hg10 mi
6:50 pm30 °FClear.5 mph75%30.33 "Hg10 mi
6:20 pm30 °FClear.7 mph75%30.33 "Hg10 mi
5:50 pm32 °FClear.6 mph69%30.36 "Hg10 mi
5:20 pm32 °FClear.5 mph69%30.36 "Hg10 mi
4:50 pm34 °FSunny.6 mph65%30.36 "Hg10 mi
4:20 pm36 °FSunny.6 mph60%30.36 "Hg10 mi
3:50 pm36 °FSunny.5 mph60%30.36 "Hg10 mi
3:20 pm36 °FPassing clouds.7 mph65%30.36 "HgN/A
2:50 pm36 °FPassing clouds.6 mph60%30.36 "HgN/A
2:20 pm36 °FSunny.3 mph65%30.36 "Hg10 mi
1:50 pm36 °FSunny.3 mph65%30.39 "Hg10 mi
1:20 pm36 °FSunny.5 mph65%30.39 "Hg10 mi
12:50 pm34 °FSunny.3 mph70%30.39 "Hg10 mi
12:20 pm32 °FSunny.3 mph75%30.39 "Hg10 mi
11:50 am32 °FSunny.3 mph75%30.42 "Hg10 mi
11:20 am30 °FSunny.2 mph75%30.42 "Hg10 mi
10:50 am28 °FSunny.2 mph80%30.42 "Hg10 mi
10:20 am28 °FSunny.No wind80%30.42 "Hg10 mi
9:50 am27 °FSunny.3 mph86%30.42 "Hg10 mi
9:20 am25 °FSunny.3 mph86%30.42 "Hg10 mi
8:50 am23 °FPassing clouds.5 mph86%30.42 "HgN/A
8:20 am23 °FClear.3 mph86%30.42 "Hg10 mi
7:50 am23 °FClear.3 mph93%30.42 "Hg10 mi
7:20 am23 °FClear.3 mph86%30.42 "Hg10 mi
6:50 am23 °FClear.5 mph86%30.42 "Hg10 mi
6:20 am23 °FClear.5 mph86%30.42 "Hg10 mi
5:50 am23 °FClear.3 mph93%30.42 "Hg10 mi
5:20 am23 °FClear.2 mph86%30.42 "Hg10 mi
Weather by CustomWeather, © 2017

See weather overviewHow to use our weather pages